Time,TemperatureF,DewpointF,PressureIn,WindDirection,WindDirectionDegrees,WindSpeedMPH,WindSpeedGustMPH,Humidity,HourlyPrecipIn,Conditions,Clouds,dailyrainin,SoftwareType,DateUTC
2013-03-14 00:00:00,23.7,16.9,30.18,NW,315,13.4,16.1,75,0.00,,,0.02,WUHU21636XXSP,2013-03-14 04:00:00,
2013-03-14 00:05:00,23.9,17.1,30.17,NNW,337,7.1,15.8,75,0.00,,,0.00,WUHU21636XXSP,2013-03-14 04:05:00,
2013-03-14 00:10:00,23.9,17.1,30.18,NW,315,11.8,16.5,75,0.00,,,0.00,WUHU21636XXSP,2013-03-14 04:10:00,
2013-03-14 00:15:00,23.9,17.4,30.18,NW,315,9.3,18.1,76,0.00,,,0.00,WUHU21636XXSP,2013-03-14 04:15:00,
2013-03-14 00:20:00,23.9,17.4,30.18,North,0,5.8,18.7,76,0.00,,,0.00,WUHU21636XXSP,2013-03-14 04:20:00,
2013-03-14 00:25:00,24.1,17.4,30.18,NNW,337,5.3,18.7,76,0.00,,,0.00,WUHU21636XXSP,2013-03-14 04:25:00,
2013-03-14 00:30:00,24.1,17.4,30.18,NW,315,12.0,17.0,76,0.00,,,0.00,WUHU21636XXSP,2013-03-14 04:30:00,
2013-03-14 00:35:00,24.1,17.4,30.18,NNW,337,12.5,18.7,76,0.00,,,0.00,WUHU21636XXSP,2013-03-14 04:35:00,
2013-03-14 00:40:00,24.3,18.0,30.18,NW,315,8.0,18.7,77,0.00,,,0.00,WUHU21636XXSP,2013-03-14 04:40:00,
2013-03-14 00:45:00,24.1,18.1,30.18,NW,315,10.5,16.5,78,0.00,,,0.00,WUHU21636XXSP,2013-03-14 04:45:00,
2013-03-14 00:50:00,24.1,18.1,30.17,NNW,337,8.7,18.5,78,0.00,,,0.00,WUHU21636XXSP,2013-03-14 04:50:00,
2013-03-14 00:55:00,24.1,18.1,30.18,NNW,337,11.1,18.5,78,0.00,,,0.00,WUHU21636XXSP,2013-03-14 04:55:00,
2013-03-14 01:00:00,24.1,18.1,30.18,NW,315,9.6,15.4,78,0.00,,,0.00,WUHU21636XXSP,2013-03-14 05:00:00,
2013-03-14 01:05:00,23.9,18.3,30.18,NNW,337,6.4,15.4,79,0.00,,,0.00,WUHU21636XXSP,2013-03-14 05:05:00,
2013-03-14 01:10:00,23.9,18.3,30.18,NNW,337,6.7,13.8,79,0.00,,,0.00,WUHU21636XXSP,2013-03-14 05:10:00,
2013-03-14 01:15:00,24.3,18.7,30.18,NNW,337,8.7,17.6,79,0.00,,,0.00,WUHU21636XXSP,2013-03-14 05:15:00,
2013-03-14 01:20:00,24.1,18.5,30.18,NW,315,8.5,17.6,79,0.00,,,0.00,WUHU21636XXSP,2013-03-14 05:20:00,
2013-03-14 01:25:00,24.3,18.7,30.18,NW,315,10.0,16.7,79,0.00,,,0.00,WUHU21636XXSP,2013-03-14 05:25:00,
2013-03-14 01:30:00,24.1,18.9,30.18,NW,315,9.3,16.7,80,0.00,,,0.00,WUHU21636XXSP,2013-03-14 05:30:00,
2013-03-14 01:35:00,24.3,19.0,30.18,NW,315,10.2,15.2,80,0.00,,,0.00,WUHU21636XXSP,2013-03-14 05:35:00,
2013-03-14 01:40:00,24.4,18.9,30.18,NW,315,13.1,20.1,79,0.00,,,0.00,WUHU21636XXSP,2013-03-14 05:40:00,
2013-03-14 01:45:00,24.4,18.9,30.18,NW,315,8.2,20.1,79,0.00,,,0.00,WUHU21636XXSP,2013-03-14 05:45:00,
2013-03-14 01:50:00,24.4,18.9,30.18,North,0,6.9,14.0,79,0.00,,,0.00,WUHU21636XXSP,2013-03-14 05:50:00,
2013-03-14 01:55:00,24.4,18.9,30.19,NNW,337,3.8,14.0,79,0.00,,,0.00,WUHU21636XXSP,2013-03-14 05:55:00,
2013-03-14 02:00:00,24.4,18.5,30.18,NNW,337,8.9,14.0,78,0.00,,,0.00,WUHU21636XXSP,2013-03-14 06:00:00,
2013-03-14 02:05:00,24.4,18.5,30.18,NNW,337,8.0,14.0,78,0.00,,,0.00,WUHU21636XXSP,2013-03-14 06:05:00,
2013-03-14 02:10:00,24.4,18.5,30.18,NW,315,7.6,14.0,78,0.00,,,0.00,WUHU21636XXSP,2013-03-14 06:10:00,
2013-03-14 02:15:00,24.6,18.7,30.18,NNW,337,6.4,16.3,78,0.00,,,0.00,WUHU21636XXSP,2013-03-14 06:15:00,
2013-03-14 02:20:00,24.4,18.9,30.19,NNW,337,9.1,16.3,79,0.00,,,0.00,WUHU21636XXSP,2013-03-14 06:20:00,
2013-03-14 02:25:00,24.4,18.9,30.19,NW,315,8.0,14.0,79,0.00,,,0.00,WUHU21636XXSP,2013-03-14 06:25:00,
2013-03-14 02:30:00,24.4,18.9,30.19,NW,315,6.9,12.0,79,0.00,,,0.00,WUHU21636XXSP,2013-03-14 06:30:00,
2013-03-14 02:35:00,24.4,18.9,30.19,NW,315,6.0,12.0,79,0.00,,,0.00,WUHU21636XXSP,2013-03-14 06:35:00,
2013-03-14 02:40:00,24.4,19.2,30.19,NNW,337,5.5,10.0,80,0.00,,,0.00,WUHU21636XXSP,2013-03-14 06:40:00,
2013-03-14 02:45:00,24.4,18.9,30.19,NW,315,8.0,11.6,80,0.00,,,0.00,WUHU21636XXSP,2013-03-14 06:45:00,
2013-03-14 02:50:00,24.4,18.9,30.19,NNW,337,4.2,11.6,79,0.00,,,0.00,WUHU21636XXSP,2013-03-14 06:50:00,
2013-03-14 02:55:00,24.4,18.9,30.19,NW,315,4.0,9.6,79,0.00,,,0.00,WUHU21636XXSP,2013-03-14 06:55:00,
2013-03-14 03:00:00,24.4,18.9,30.19,NW,315,8.5,10.2,79,0.00,,,0.00,WUHU21636XXSP,2013-03-14 07:00:00,
2013-03-14 03:05:00,24.4,18.9,30.19,NW,315,9.6,13.1,79,0.00,,,0.00,WUHU21636XXSP,2013-03-14 07:05:00,
2013-03-14 03:10:00,24.4,18.5,30.19,NNW,337,7.8,14.7,78,0.00,,,0.00,WUHU21636XXSP,2013-03-14 07:10:00,
2013-03-14 03:15:00,24.4,18.5,30.20,NW,315,10.0,15.4,78,0.00,,,0.00,WUHU21636XXSP,2013-03-14 07:15:00,
2013-03-14 03:20:00,24.4,18.5,30.19,NNW,337,6.7,15.4,78,0.00,,,0.00,WUHU21636XXSP,2013-03-14 07:20:00,
2013-03-14 03:25:00,24.1,18.2,30.20,NW,315,3.5,15.4,78,0.00,,,0.00,WUHU21636XXSP,2013-03-14 07:25:00,
2013-03-14 03:30:00,23.9,18.1,30.20,NNW,338,2.6,9.3,78,0.00,,,0.00,WUHU21636XXSP,2013-03-14 07:30:00,
2013-03-14 03:35:00,24.1,17.7,30.20,NW,315,5.1,7.2,76,0.00,,,0.00,WUHU21636XXSP,2013-03-14 07:35:00,
2013-03-14 04:52:00,22.1,15.8,30.18,NW,315,4.0,4.0,77,0.00,,,0.00,WUHU21636XXSP,2013-03-14 08:52:00,
2013-03-14 04:57:00,22.3,15.8,30.18,NW,315,4.0,9.1,76,0.00,,,0.00,WUHU21636XXSP,2013-03-14 08:57:00,
2013-03-14 05:02:00,22.1,15.6,30.18,NW,315,3.3,9.1,76,0.00,,,0.00,WUHU21636XXSP,2013-03-14 09:02:00,
2013-03-14 05:07:00,21.9,15.4,30.18,NNW,337,5.3,8.0,76,0.00,,,0.00,WUHU21636XXSP,2013-03-14 09:07:00,
2013-03-14 05:12:00,21.7,14.9,30.18,NNW,337,1.1,8.0,75,0.00,,,0.00,WUHU21636XXSP,2013-03-14 09:12:00,
2013-03-14 05:17:00,21.7,14.9,30.18,NNW,337,0.0,5.3,76,0.00,,,0.00,WUHU21636XXSP,2013-03-14 09:17:00,
2013-03-14 05:22:00,21.6,15.1,30.18,NNW,337,2.4,3.5,76,0.00,,,0.00,WUHU21636XXSP,2013-03-14 09:22:00,
2013-03-14 05:27:00,21.0,14.5,30.18,NW,315,2.2,3.5,76,0.00,,,0.00,WUHU21636XXSP,2013-03-14 09:27:00,
2013-03-14 05:32:00,20.8,14.4,30.18,NW,315,3.1,3.5,76,0.00,,,0.00,WUHU21636XXSP,2013-03-14 09:32:00,
2013-03-14 05:37:00,20.7,14.2,30.18,NW,315,0.0,3.1,76,0.00,,,0.00,WUHU21636XXSP,2013-03-14 09:37:00,
2013-03-14 05:42:00,19.8,13.5,30.18,NW,315,0.8,3.1,77,0.00,,,0.00,WUHU21636XXSP,2013-03-14 09:42:00,
2013-03-14 05:47:00,19.2,12.9,30.18,NW,315,0.0,0.8,77,0.00,,,0.00,WUHU21636XXSP,2013-03-14 09:47:00,
2013-03-14 05:52:00,19.0,12.7,30.18,NW,315,0.0,0.8,77,0.00,,,0.00,WUHU21636XXSP,2013-03-14 09:52:00,
2013-03-14 05:57:00,18.7,13.1,30.18,NW,315,0.0,2.9,79,0.00,,,0.00,WUHU21636XXSP,2013-03-14 09:57:00,
2013-03-14 06:02:00,18.5,12.6,30.18,NW,315,0.0,2.9,78,0.00,,,0.00,WUHU21636XXSP,2013-03-14 10:02:00,
2013-03-14 06:07:00,18.1,12.2,30.19,NW,315,0.0,0.0,78,0.00,,,0.00,WUHU21636XXSP,2013-03-14 10:07:00,
2013-03-14 06:12:00,17.4,11.5,30.19,NW,315,0.0,0.0,78,0.00,,,0.00,WUHU21636XXSP,2013-03-14 10:12:00,
2013-03-14 06:17:00,17.2,11.7,30.19,NW,315,0.0,0.0,79,0.00,,,0.00,WUHU21636XXSP,2013-03-14 10:17:00,
2013-03-14 06:22:00,17.1,11.5,30.19,NW,315,0.0,0.0,79,0.00,,,0.00,WUHU21636XXSP,2013-03-14 10:22:00,
2013-03-14 06:27:00,16.7,11.1,30.19,NW,315,0.0,0.0,79,0.00,,,0.00,WUHU21636XXSP,2013-03-14 10:27:00,
2013-03-14 06:32:00,16.5,10.9,30.19,NW,315,0.0,0.0,79,0.00,,,0.00,WUHU21636XXSP,2013-03-14 10:32:00,
2013-03-14 06:37:00,16.3,10.9,30.19,NW,315,0.0,0.0,79,0.00,,,0.00,WUHU21636XXSP,2013-03-14 10:37:00,
2013-03-14 06:42:00,16.3,10.9,30.19,NW,315,0.0,0.0,79,0.00,,,0.00,WUHU21636XXSP,2013-03-14 10:42:00,
2013-03-14 06:47:00,16.0,10.8,30.19,NW,315,0.0,0.0,80,0.00,,,0.00,WUHU21636XXSP,2013-03-14 10:47:00,
2013-03-14 06:52:00,16.0,10.8,30.19,NW,315,0.0,0.0,81,0.00,,,0.00,WUHU21636XXSP,2013-03-14 10:52:00,
2013-03-14 06:57:00,16.0,10.8,30.19,NW,315,0.0,0.0,81,0.00,,,0.00,WUHU21636XXSP,2013-03-14 10:57:00,
2013-03-14 07:02:00,15.4,10.6,30.19,NW,315,0.0,0.0,81,0.00,,,0.00,WUHU21636XXSP,2013-03-14 11:02:00,
2013-03-14 07:07:00,15.1,10.2,30.20,NW,315,0.0,0.0,81,0.00,,,0.00,WUHU21636XXSP,2013-03-14 11:07:00,
2013-03-14 07:12:00,14.9,10.0,30.20,NW,315,0.0,0.0,81,0.00,,,0.00,WUHU21636XXSP,2013-03-14 11:12:00,
2013-03-14 07:17:00,14.5,9.7,30.20,NW,315,0.0,0.0,81,0.00,,,0.00,WUHU21636XXSP,2013-03-14 11:17:00,
2013-03-14 07:22:00,14.4,9.5,30.20,NW,315,0.0,0.0,81,0.00,,,0.00,WUHU21636XXSP,2013-03-14 11:22:00,
2013-03-14 07:27:00,14.4,9.5,30.20,NW,315,0.0,0.0,82,0.00,,,0.00,WUHU21636XXSP,2013-03-14 11:27:00,
2013-03-14 07:32:00,14.4,9.5,30.20,NW,315,0.0,0.0,82,0.00,,,0.00,WUHU21636XXSP,2013-03-14 11:32:00,
2013-03-14 07:37:00,14.2,9.5,30.20,NW,315,0.0,0.0,82,0.00,,,0.00,WUHU21636XXSP,2013-03-14 11:37:00,
2013-03-14 07:42:00,14.0,9.5,30.20,NW,315,0.0,0.0,82,0.00,,,0.00,WUHU21636XXSP,2013-03-14 11:42:00,
2013-03-14 07:47:00,13.6,9.1,30.20,NW,315,0.0,0.0,82,0.00,,,0.00,WUHU21636XXSP,2013-03-14 11:47:00,
2013-03-14 07:52:00,13.3,8.8,30.20,NW,315,0.0,0.0,82,0.00,,,0.00,WUHU21636XXSP,2013-03-14 11:52:00,
2013-03-14 07:57:00,13.3,8.8,30.20,NW,315,0.0,0.0,82,0.00,,,0.00,WUHU21636XXSP,2013-03-14 11:57:00,
2013-03-14 08:02:00,12.9,8.4,30.20,NW,315,0.0,0.0,82,0.00,,,0.00,WUHU21636XXSP,2013-03-14 12:02:00,
2013-03-14 08:07:00,12.7,8.4,30.20,NW,315,0.0,0.0,83,0.00,,,0.00,WUHU21636XXSP,2013-03-14 12:07:00,
2013-03-14 08:12:00,12.7,8.4,30.20,NW,315,0.0,0.0,83,0.00,,,0.00,WUHU21636XXSP,2013-03-14 12:12:00,
2013-03-14 08:17:00,12.4,8.1,30.20,NW,315,0.0,0.0,83,0.00,,,0.00,WUHU21636XXSP,2013-03-14 12:17:00,
2013-03-14 08:22:00,12.0,8.1,30.20,NW,315,0.0,0.0,84,0.00,,,0.00,WUHU21636XXSP,2013-03-14 12:22:00,
2013-03-14 08:27:00,12.0,8.1,30.21,NW,315,0.0,0.0,84,0.00,,,0.00,WUHU21636XXSP,2013-03-14 12:27:00,
2013-03-14 08:32:00,11.8,7.9,30.21,NW,315,0.0,0.0,84,0.00,,,0.00,WUHU21636XXSP,2013-03-14 12:32:00,
2013-03-14 08:37:00,11.8,7.9,30.20,NW,315,0.0,0.0,84,0.00,,,0.00,WUHU21636XXSP,2013-03-14 12:37:00,
2013-03-14 08:42:00,11.5,7.5,30.20,NW,315,0.0,0.0,84,0.00,,,0.00,WUHU21636XXSP,2013-03-14 12:42:00,
2013-03-14 08:47:00,12.0,8.1,30.21,NW,315,0.0,0.0,84,0.00,,,0.00,WUHU21636XXSP,2013-03-14 12:47:00,
2013-03-14 08:52:00,12.9,9.1,30.21,NW,315,0.0,0.0,85,0.00,,,0.00,WUHU21636XXSP,2013-03-14 12:52:00,
2013-03-14 08:57:00,13.6,9.9,30.21,NW,315,0.0,0.0,85,0.00,,,0.00,WUHU21636XXSP,2013-03-14 12:57:00,
2013-03-14 09:02:00,15.1,11.5,30.21,NW,315,0.0,0.0,86,0.00,,,0.00,WUHU21636XXSP,2013-03-14 13:02:00,
2013-03-14 09:07:00,16.5,13.1,30.21,NW,315,0.0,0.0,87,0.00,,,0.00,WUHU21636XXSP,2013-03-14 13:07:00,
2013-03-14 09:12:00,18.0,14.5,30.21,NW,315,0.0,0.0,87,0.00,,,0.00,WUHU21636XXSP,2013-03-14 13:12:00,
2013-03-14 09:17:00,20.1,16.5,30.21,NW,315,0.0,0.0,86,0.00,,,0.00,WUHU21636XXSP,2013-03-14 13:17:00,
2013-03-14 09:22:00,21.6,17.6,30.22,NW,315,0.0,0.0,85,0.00,,,0.00,WUHU21636XXSP,2013-03-14 13:22:00,
2013-03-14 09:27:00,23.2,19.0,30.22,NW,315,0.0,0.0,84,0.00,,,0.00,WUHU21636XXSP,2013-03-14 13:27:00,
2013-03-14 09:32:00,25.9,20.5,30.22,NW,315,0.0,0.0,80,0.00,,,0.00,WUHU21636XXSP,2013-03-14 13:32:00,
2013-03-14 09:37:00,27.1,21.4,30.22,NW,315,0.0,0.0,79,0.00,,,0.00,WUHU21636XXSP,2013-03-14 13:37:00,
2013-03-14 09:42:00,28.8,22.3,30.23,NW,315,0.0,0.0,77,0.00,,,0.00,WUHU21636XXSP,2013-03-14 13:42:00,
2013-03-14 09:47:00,30.7,23.0,30.23,NW,315,0.0,0.0,73,0.00,,,0.00,WUHU21636XXSP,2013-03-14 13:47:00,
2013-03-14 09:52:00,31.8,23.2,30.23,NW,315,0.0,0.0,70,0.00,,,0.00,WUHU21636XXSP,2013-03-14 13:52:00,
2013-03-14 09:57:00,31.5,20.7,30.23,NW,315,0.0,0.0,64,0.00,,,0.00,WUHU21636XXSP,2013-03-14 13:57:00,
2013-03-14 10:02:00,31.1,21.4,30.23,NW,315,0.0,0.0,67,0.00,,,0.00,WUHU21636XXSP,2013-03-14 14:02:00,
2013-03-14 10:07:00,30.9,19.4,30.23,NW,315,0.0,0.0,62,0.00,,,0.00,WUHU21636XXSP,2013-03-14 14:07:00,
2013-03-14 10:12:00,30.4,19.2,30.23,South,180,0.0,0.0,64,0.00,,,0.00,WUHU21636XXSP,2013-03-14 14:12:00,
2013-03-14 10:17:00,30.7,19.2,30.23,South,180,0.0,0.0,62,0.00,,,0.00,WUHU21636XXSP,2013-03-14 14:17:00,
2013-03-14 10:22:00,30.4,19.2,30.23,South,180,0.0,0.0,63,0.00,,,0.00,WUHU21636XXSP,2013-03-14 14:22:00,
2013-03-14 10:27:00,30.4,19.2,30.23,South,180,0.0,0.0,63,0.00,,,0.00,WUHU21636XXSP,2013-03-14 14:27:00,
2013-03-14 10:32:00,30.4,19.2,30.22,South,180,0.0,0.0,63,0.00,,,0.00,WUHU21636XXSP,2013-03-14 14:32:00,
2013-03-14 10:37:00,33.6,21.9,30.23,South,180,0.0,0.0,62,0.00,,,0.00,WUHU21636XXSP,2013-03-14 14:37:00,
2013-03-14 10:42:00,34.5,21.6,30.23,South,180,0.0,0.0,59,0.00,,,0.00,WUHU21636XXSP,2013-03-14 14:42:00,
2013-03-14 10:47:00,34.0,21.0,30.23,South,180,0.0,0.0,59,0.00,,,0.00,WUHU21636XXSP,2013-03-14 14:47:00,
2013-03-14 10:52:00,30.7,17.6,30.23,NNW,337,0.0,0.0,58,0.00,,,0.00,WUHU21636XXSP,2013-03-14 14:52:00,
2013-03-14 10:57:00,29.8,16.7,30.23,NNW,337,0.0,0.0,58,0.00,,,0.00,WUHU21636XXSP,2013-03-14 14:57:00,
2013-03-14 11:02:00,29.8,16.7,30.23,NNW,337,0.0,0.0,58,0.00,,,0.00,WUHU21636XXSP,2013-03-14 15:02:00,
2013-03-14 11:07:00,29.8,16.7,30.22,NNW,337,0.0,0.0,64,0.00,,,0.00,WUHU21636XXSP,2013-03-14 15:07:00,
2013-03-14 11:12:00,29.8,16.7,30.22,NNW,337,0.0,0.0,64,0.00,,,0.00,WUHU21636XXSP,2013-03-14 15:12:00,
2013-03-14 11:17:00,29.8,16.7,30.22,NNW,337,0.0,0.0,64,0.00,,,0.00,WUHU21636XXSP,2013-03-14 15:17:00,
2013-03-14 11:22:00,29.8,16.7,30.22,NNW,337,0.0,0.0,64,0.00,,,0.00,WUHU21636XXSP,2013-03-14 15:22:00,
2013-03-14 11:23:00,29.8,16.7,30.22,NNW,337,0.0,0.0,64,0.00,,,0.00,WUHU21636XXSP,2013-03-14 15:23:00,
2013-03-14 11:27:00,29.8,16.7,30.22,NNW,337,0.0,0.0,64,0.00,,,0.00,WUHU21636XXSP,2013-03-14 15:27:00,
2013-03-14 11:32:00,29.8,16.7,30.22,NNW,337,0.0,0.0,64,0.00,,,0.00,WUHU21636XXSP,2013-03-14 15:32:00,
2013-03-14 11:42:00,29.3,18.5,30.22,North,0,7.1,7.1,64,0.00,,,0.00,WUHU21636XXSP,2013-03-14 15:42:00,
2013-03-14 11:47:00,29.3,18.5,30.22,North,0,7.1,7.1,64,0.00,,,0.00,WUHU21636XXSP,2013-03-14 15:47:00,
2013-03-14 11:52:00,28.4,17.8,30.22,NNW,337,5.3,7.6,64,0.00,,,0.00,WUHU21636XXSP,2013-03-14 15:52:00,
2013-03-14 11:57:00,28.4,18.1,30.21,NW,315,10.0,10.0,65,0.00,,,0.00,WUHU21636XXSP,2013-03-14 15:57:00,
2013-03-14 12:02:00,29.1,18.7,30.21,NW,315,10.0,10.7,63,0.00,,,0.00,WUHU21636XXSP,2013-03-14 16:02:00,
2013-03-14 12:07:00,28.9,18.5,30.21,NNW,337,5.5,10.7,65,0.02,,,0.02,WUHU21636XXSP,2013-03-14 16:07:00,
2013-03-14 12:12:00,29.1,19.0,30.21,NW,315,5.5,10.0,64,0.02,,,0.02,WUHU21636XXSP,2013-03-14 16:12:00,
2013-03-14 12:17:00,28.8,17.6,30.20,NNW,337,8.2,10.7,63,0.02,,,0.02,WUHU21636XXSP,2013-03-14 16:17:00,
2013-03-14 12:22:00,28.4,18.1,30.20,NW,315,10.5,10.7,65,0.06,,,0.06,WUHU21636XXSP,2013-03-14 16:22:00,
2013-03-14 12:27:00,29.5,18.7,30.20,NW,315,4.6,10.5,64,0.06,,,0.06,WUHU21636XXSP,2013-03-14 16:27:00,
2013-03-14 12:32:00,29.8,18.3,30.20,West,270,4.0,13.4,62,0.06,,,0.06,WUHU21636XXSP,2013-03-14 16:32:00,
2013-03-14 12:37:00,30.0,18.1,30.20,NNW,337,7.1,13.4,61,0.06,,,0.06,WUHU21636XXSP,2013-03-14 16:37:00,
2013-03-14 12:42:00,30.0,18.9,30.20,NNW,337,6.2,9.6,63,0.06,,,0.06,WUHU21636XXSP,2013-03-14 16:42:00,
2013-03-14 12:47:00,30.4,18.1,30.20,NNW,337,5.5,9.1,60,0.06,,,0.06,WUHU21636XXSP,2013-03-14 16:47:00,
2013-03-14 12:52:00,30.4,18.5,30.20,WNW,292,9.6,11.8,61,0.06,,,0.06,WUHU21636XXSP,2013-03-14 16:52:00,
2013-03-14 12:57:00,30.0,17.8,30.20,NNW,337,10.0,13.8,60,0.06,,,0.06,WUHU21636XXSP,2013-03-14 16:57:00,
2013-03-14 13:02:00,30.9,18.7,30.20,NW,315,4.9,13.8,60,0.08,,,0.08,WUHU21636XXSP,2013-03-14 17:02:00,
2013-03-14 13:07:00,31.3,19.0,30.20,West,270,3.3,12.5,60,0.06,,,0.08,WUHU21636XXSP,2013-03-14 17:07:00,
2013-03-14 13:12:00,30.7,18.9,30.19,NW,315,5.3,12.5,61,0.06,,,0.08,WUHU21636XXSP,2013-03-14 17:12:00,
2013-03-14 13:17:00,30.7,18.9,30.19,NW,315,5.3,7.1,61,0.06,,,0.08,WUHU21636XXSP,2013-03-14 17:17:00,
2013-03-14 13:22:00,31.5,18.3,30.19,NNW,337,8.0,8.0,58,0.02,,,0.08,WUHU21636XXSP,2013-03-14 17:22:00,
2013-03-14 13:27:00,31.6,18.9,30.19,NNW,337,5.3,8.7,59,0.02,,,0.08,WUHU21636XXSP,2013-03-14 17:27:00,
2013-03-14 13:32:00,31.8,18.1,30.19,NNW,337,7.1,10.2,57,0.02,,,0.08,WUHU21636XXSP,2013-03-14 17:32:00,
2013-03-14 13:37:00,31.6,18.5,30.19,WSW,247,0.6,10.9,59,0.02,,,0.08,WUHU21636XXSP,2013-03-14 17:37:00,
2013-03-14 13:43:00,32.4,19.2,30.19,NW,315,3.8,10.9,58,0.02,,,0.08,WUHU21636XXSP,2013-03-14 17:43:00,
2013-03-14 13:48:00,31.6,19.8,30.18,NNW,337,9.6,13.4,61,0.02,,,0.08,WUHU21636XXSP,2013-03-14 17:48:00,
2013-03-14 13:53:00,30.9,18.7,30.18,NNW,337,8.0,13.4,60,0.02,,,0.08,WUHU21636XXSP,2013-03-14 17:53:00,
2013-03-14 13:58:00,31.6,18.9,30.18,NNW,337,4.2,11.1,59,0.02,,,0.08,WUHU21636XXSP,2013-03-14 17:58:00,
2013-03-14 14:03:00,33.4,19.8,30.18,SW,225,4.4,8.2,57,0.00,,,0.08,WUHU21636XXSP,2013-03-14 18:03:00,
2013-03-14 14:08:00,33.4,19.2,30.18,WNW,292,4.9,13.6,57,0.00,,,0.08,WUHU21636XXSP,2013-03-14 18:08:00,
2013-03-14 14:13:00,32.2,19.0,30.18,WNW,292,8.0,13.6,58,0.00,,,0.08,WUHU21636XXSP,2013-03-14 18:13:00,
2013-03-14 14:18:00,32.5,19.2,30.18,NW,315,6.0,14.9,58,0.00,,,0.08,WUHU21636XXSP,2013-03-14 18:18:00,
2013-03-14 14:23:00,32.9,19.6,30.18,West,270,1.5,14.9,58,0.00,,,0.08,WUHU21636XXSP,2013-03-14 18:23:00,
2013-03-14 14:28:00,32.5,18.9,30.18,NW,315,8.5,12.7,57,0.00,,,0.08,WUHU21636XXSP,2013-03-14 18:28:00,
2013-03-14 14:33:00,31.6,18.0,30.18,NW,315,10.7,13.4,57,0.00,,,0.08,WUHU21636XXSP,2013-03-14 18:33:00,
2013-03-14 14:38:00,31.8,18.7,30.17,NW,315,5.1,13.4,58,0.00,,,0.08,WUHU21636XXSP,2013-03-14 18:38:00,
2013-03-14 14:43:00,32.0,19.2,30.17,NW,315,10.9,14.5,59,0.00,,,0.08,WUHU21636XXSP,2013-03-14 18:43:00,
2013-03-14 14:48:00,32.2,19.0,30.17,NW,315,10.9,14.5,58,0.00,,,0.08,WUHU21636XXSP,2013-03-14 18:48:00,
2013-03-14 14:53:00,31.6,18.5,30.17,WNW,292,3.1,14.9,58,0.00,,,0.08,WUHU21636XXSP,2013-03-14 18:53:00,
2013-03-14 14:58:00,33.1,18.1,30.16,NW,315,8.7,14.9,54,0.00,,,0.08,WUHU21636XXSP,2013-03-14 18:58:00,
2013-03-14 15:03:00,32.5,19.2,30.16,WSW,247,1.3,14.3,58,0.00,,,0.08,WUHU21636XXSP,2013-03-14 19:03:00,
2013-03-14 15:08:00,33.1,19.8,30.16,West,270,3.3,11.1,58,0.00,,,0.08,WUHU21636XXSP,2013-03-14 19:08:00,
2013-03-14 15:13:00,32.4,19.2,30.16,WNW,292,1.3,16.1,58,0.00,,,0.08,WUHU21636XXSP,2013-03-14 19:13:00,
2013-03-14 15:18:00,33.1,20.3,30.16,NW,315,10.9,16.1,59,0.00,,,0.08,WUHU21636XXSP,2013-03-14 19:18:00,
2013-03-14 15:23:00,33.4,20.1,30.16,WSW,247,0.0,16.3,58,0.00,,,0.08,WUHU21636XXSP,2013-03-14 19:23:00,
2013-03-14 15:28:00,33.4,19.2,30.16,NW,315,6.2,16.3,56,0.00,,,0.08,WUHU21636XXSP,2013-03-14 19:28:00,
2013-03-14 15:33:00,33.6,19.8,30.16,WNW,292,3.8,16.3,57,0.00,,,0.08,WUHU21636XXSP,2013-03-14 19:33:00,
2013-03-14 15:38:00,32.9,19.6,30.16,NNW,337,9.6,20.1,58,0.00,,,0.08,WUHU21636XXSP,2013-03-14 19:38:00,
2013-03-14 15:43:00,32.5,19.2,30.16,WNW,292,9.1,20.1,58,0.00,,,0.08,WUHU21636XXSP,2013-03-14 19:43:00,
2013-03-14 15:48:00,33.6,20.7,30.15,West,270,1.3,17.4,59,0.00,,,0.08,WUHU21636XXSP,2013-03-14 19:48:00,
2013-03-14 15:53:00,32.7,18.1,30.15,NW,315,9.1,16.5,55,0.00,,,0.08,WUHU21636XXSP,2013-03-14 19:53:00,
2013-03-14 15:58:00,33.3,19.0,30.15,WSW,247,3.3,16.5,56,0.00,,,0.08,WUHU21636XXSP,2013-03-14 19:58:00,
2013-03-14 16:03:00,33.6,18.1,30.14,WNW,292,2.0,14.0,52,0.00,,,0.08,WUHU21636XXSP,2013-03-14 20:03:00,
2013-03-14 16:08:00,33.1,18.1,30.14,West,270,2.9,12.3,54,0.00,,,0.08,WUHU21636XXSP,2013-03-14 20:08:00,
2013-03-14 16:13:00,33.4,18.9,30.14,WNW,292,4.6,12.3,55,0.00,,,0.08,WUHU21636XXSP,2013-03-14 20:13:00,
2013-03-14 16:18:00,32.9,17.1,30.14,West,270,8.7,13.1,52,0.00,,,0.08,WUHU21636XXSP,2013-03-14 20:18:00,
2013-03-14 16:23:00,32.7,18.7,30.14,NNW,337,7.6,16.1,56,0.00,,,0.08,WUHU21636XXSP,2013-03-14 20:23:00,
2013-03-14 16:28:00,32.5,18.0,30.13,NW,315,1.1,16.1,55,0.00,,,0.08,WUHU21636XXSP,2013-03-14 20:28:00,
2013-03-14 16:33:00,33.1,18.9,30.13,WNW,292,0.8,14.0,56,0.00,,,0.08,WUHU21636XXSP,2013-03-14 20:33:00,
2013-03-14 16:38:00,34.9,20.3,30.13,NW,315,4.0,13.1,55,0.00,,,0.08,WUHU21636XXSP,2013-03-14 20:38:00,
2013-03-14 16:43:00,34.0,20.1,30.13,NW,315,8.5,10.5,57,0.00,,,0.08,WUHU21636XXSP,2013-03-14 20:43:00,
2013-03-14 16:48:00,33.6,19.8,30.13,SW,225,4.4,10.5,57,0.00,,,0.08,WUHU21636XXSP,2013-03-14 20:48:00,
2013-03-14 16:53:00,34.0,19.8,30.12,West,270,0.8,10.7,55,0.00,,,0.08,WUHU21636XXSP,2013-03-14 20:53:00,
2013-03-14 16:58:00,34.2,19.6,30.12,SSW,202,6.2,10.7,55,0.00,,,0.08,WUHU21636XXSP,2013-03-14 20:58:00,
2013-03-14 17:03:00,33.8,19.2,30.13,WNW,292,8.9,13.4,55,0.00,,,0.08,WUHU21636XXSP,2013-03-14 21:03:00,
2013-03-14 17:08:00,33.4,18.9,30.13,WNW,292,2.0,13.6,55,0.00,,,0.08,WUHU21636XXSP,2013-03-14 21:08:00,
2013-03-14 17:13:00,33.4,18.9,30.13,West,270,2.4,13.6,56,0.00,,,0.08,WUHU21636XXSP,2013-03-14 21:13:00,
2013-03-14 17:18:00,34.0,19.8,30.13,WNW,292,3.1,13.1,56,0.00,,,0.08,WUHU21636XXSP,2013-03-14 21:18:00,
2013-03-14 17:23:00,33.6,19.8,30.13,WNW,292,5.3,11.1,57,0.00,,,0.08,WUHU21636XXSP,2013-03-14 21:23:00,
2013-03-14 17:28:00,33.4,20.1,30.13,NW,315,8.2,11.1,58,0.00,,,0.08,WUHU21636XXSP,2013-03-14 21:28:00,
2013-03-14 17:33:00,33.1,20.3,30.13,WSW,247,6.0,13.6,59,0.00,,,0.08,WUHU21636XXSP,2013-03-14 21:33:00,
2013-03-14 17:38:00,33.4,20.5,30.12,WSW,247,1.5,13.6,59,0.00,,,0.08,WUHU21636XXSP,2013-03-14 21:38:00,
2013-03-14 17:43:00,33.1,20.7,30.12,West,270,2.0,12.7,60,0.00,,,0.08,WUHU21636XXSP,2013-03-14 21:43:00,
2013-03-14 17:48:00,33.1,20.7,30.12,West,270,2.0,15.6,60,0.00,,,0.08,WUHU21636XXSP,2013-03-14 21:48:00,
2013-03-14 17:53:00,33.6,20.7,30.12,NW,315,7.1,15.6,59,0.00,,,0.08,WUHU21636XXSP,2013-03-14 21:53:00,
2013-03-14 17:58:00,33.6,21.2,30.12,West,270,2.0,15.6,60,0.00,,,0.08,WUHU21636XXSP,2013-03-14 21:58:00,
2013-03-14 18:03:00,33.4,20.5,30.12,West,270,2.6,8.9,59,0.00,,,0.08,WUHU21636XXSP,2013-03-14 22:03:00,
2013-03-14 18:08:00,33.6,20.7,30.11,West,270,0.0,7.3,59,0.00,,,0.08,WUHU21636XXSP,2013-03-14 22:08:00,
2013-03-14 18:13:00,33.4,20.5,30.10,West,270,0.0,10.2,60,0.00,,,0.08,WUHU21636XXSP,2013-03-14 22:13:00,
2013-03-14 18:18:00,33.4,21.0,30.10,West,270,0.0,10.2,60,0.00,,,0.08,WUHU21636XXSP,2013-03-14 22:18:00,
2013-03-14 18:23:00,33.1,20.3,30.10,WSW,247,1.1,8.2,59,0.00,,,0.08,WUHU21636XXSP,2013-03-14 22:23:00,
2013-03-14 18:28:00,33.4,20.5,30.10,NW,315,8.0,12.5,59,0.00,,,0.08,WUHU21636XXSP,2013-03-14 22:28:00,
2013-03-14 18:33:00,32.9,20.5,30.10,WSW,247,0.0,12.5,60,0.00,,,0.08,WUHU21636XXSP,2013-03-14 22:33:00,
2013-03-14 18:38:00,32.5,19.8,30.09,West,270,1.3,15.2,59,0.00,,,0.08,WUHU21636XXSP,2013-03-14 22:38:00,
2013-03-14 18:43:00,32.5,20.1,30.09,West,270,0.2,15.2,60,0.00,,,0.08,WUHU21636XXSP,2013-03-14 22:43:00,
2013-03-14 18:48:00,31.8,19.9,30.09,WSW,247,1.7,8.9,61,0.00,,,0.08,WUHU21636XXSP,2013-03-14 22:48:00,
2013-03-14 18:53:00,31.3,19.8,30.10,NW,315,4.4,4.4,62,0.00,,,0.08,WUHU21636XXSP,2013-03-14 22:53:00,
2013-03-14 18:58:00,30.9,19.4,30.10,West,270,2.0,10.0,62,0.00,,,0.08,WUHU21636XXSP,2013-03-14 22:58:00,
2013-03-14 19:03:00,30.9,19.4,30.10,West,270,4.2,10.0,62,0.00,,,0.08,WUHU21636XXSP,2013-03-14 23:03:00,
2013-03-14 19:08:00,30.4,19.6,30.10,NW,315,4.9,4.9,64,0.00,,,0.08,WUHU21636XXSP,2013-03-14 23:08:00,
2013-03-14 19:13:00,30.0,19.2,30.10,WNW,292,0.2,7.6,64,0.00,,,0.08,WUHU21636XXSP,2013-03-14 23:13:00,
2013-03-14 19:18:00,29.8,19.0,30.09,West,270,2.2,7.6,65,0.00,,,0.08,WUHU21636XXSP,2013-03-14 23:18:00,
2013-03-14 19:23:00,29.8,19.0,30.09,West,270,0.0,3.3,65,0.00,,,0.08,WUHU21636XXSP,2013-03-14 23:23:00,
2013-03-14 19:28:00,29.5,19.0,30.09,West,270,0.0,2.2,65,0.00,,,0.08,WUHU21636XXSP,2013-03-14 23:28:00,
2013-03-14 19:33:00,29.3,18.9,30.08,WNW,292,0.0,0.0,65,0.00,,,0.08,WUHU21636XXSP,2013-03-14 23:33:00,
2013-03-14 19:38:00,29.1,18.7,30.08,WSW,247,0.0,2.0,65,0.00,,,0.08,WUHU21636XXSP,2013-03-14 23:38:00,
2013-03-14 19:43:00,28.9,18.5,30.07,WSW,247,0.0,2.0,65,0.00,,,0.08,WUHU21636XXSP,2013-03-14 23:43:00,
2013-03-14 19:48:00,28.4,18.1,30.07,WSW,247,0.0,0.0,65,0.00,,,0.08,WUHU21636XXSP,2013-03-14 23:48:00,
2013-03-14 19:54:00,28.2,18.3,30.07,WSW,247,0.0,0.0,66,0.00,,,0.08,WUHU21636XXSP,2013-03-14 23:54:00,
2013-03-14 19:59:00,27.9,18.0,30.07,WSW,247,0.0,0.0,66,0.00,,,0.08,WUHU21636XXSP,2013-03-14 23:59:00,
2013-03-14 20:04:00,27.7,18.1,30.07,WSW,247,0.0,0.0,67,0.00,,,0.08,WUHU21636XXSP,2013-03-15 00:04:00,
2013-03-14 20:09:00,27.5,18.0,30.07,WSW,247,0.0,0.0,67,0.00,,,0.08,WUHU21636XXSP,2013-03-15 00:09:00,
2013-03-14 20:14:00,27.3,17.8,30.06,WSW,247,0.0,0.0,68,0.00,,,0.08,WUHU21636XXSP,2013-03-15 00:14:00,
2013-03-14 20:19:00,27.0,17.8,30.06,WSW,247,0.0,0.0,68,0.00,,,0.08,WUHU21636XXSP,2013-03-15 00:19:00,
2013-03-14 20:24:00,26.4,17.6,30.05,WSW,247,0.0,0.0,69,0.00,,,0.08,WUHU21636XXSP,2013-03-15 00:24:00,
2013-03-14 20:29:00,26.2,17.4,30.04,WSW,247,0.0,0.0,69,0.00,,,0.08,WUHU21636XXSP,2013-03-15 00:29:00,
2013-03-14 20:34:00,25.9,17.4,30.04,WSW,247,0.0,0.0,70,0.00,,,0.08,WUHU21636XXSP,2013-03-15 00:34:00,
2013-03-14 20:39:00,25.9,17.4,30.04,WSW,247,0.0,0.0,70,0.00,,,0.08,WUHU21636XXSP,2013-03-15 00:39:00,
2013-03-14 20:44:00,25.5,17.1,30.03,WSW,247,0.0,0.0,70,0.00,,,0.08,WUHU21636XXSP,2013-03-15 00:44:00,
2013-03-14 20:49:00,25.3,17.1,30.03,WSW,247,0.0,0.0,71,0.00,,,0.08,WUHU21636XXSP,2013-03-15 00:49:00,
2013-03-14 20:54:00,25.3,17.1,30.03,WSW,247,0.0,0.0,71,0.00,,,0.08,WUHU21636XXSP,2013-03-15 00:54:00,
2013-03-14 20:59:00,25.2,16.9,30.03,WSW,247,0.0,0.0,72,0.00,,,0.08,WUHU21636XXSP,2013-03-15 00:59:00,
2013-03-14 21:04:00,25.0,17.1,30.03,WSW,247,0.0,0.0,72,0.00,,,0.08,WUHU21636XXSP,2013-03-15 01:04:00,
2013-03-14 21:09:00,24.6,16.7,30.02,WSW,247,0.0,0.0,72,0.00,,,0.08,WUHU21636XXSP,2013-03-15 01:09:00,
2013-03-14 21:14:00,24.6,16.7,30.02,WSW,247,0.0,0.0,73,0.00,,,0.08,WUHU21636XXSP,2013-03-15 01:14:00,
2013-03-14 21:19:00,24.6,16.7,30.02,WSW,247,0.0,0.8,74,0.00,,,0.08,WUHU21636XXSP,2013-03-15 01:19:00,
2013-03-14 21:24:00,24.6,16.7,30.02,WSW,247,0.0,0.8,75,0.00,,,0.08,WUHU21636XXSP,2013-03-15 01:24:00,
2013-03-14 21:29:00,24.8,18.0,30.01,SSW,202,3.8,3.8,75,0.00,,,0.08,WUHU21636XXSP,2013-03-15 01:29:00,
2013-03-14 21:34:00,25.0,18.0,30.01,SSW,202,0.0,3.8,75,0.00,,,0.08,WUHU21636XXSP,2013-03-15 01:34:00,
2013-03-14 21:39:00,25.3,18.3,30.01,South,180,0.0,3.8,75,0.00,,,0.08,WUHU21636XXSP,2013-03-15 01:39:00,
2013-03-14 21:44:00,25.3,18.3,30.01,South,180,1.1,1.7,74,0.00,,,0.08,WUHU21636XXSP,2013-03-15 01:44:00,
2013-03-14 21:49:00,25.3,18.3,30.01,South,180,0.0,1.7,74,0.00,,,0.08,WUHU21636XXSP,2013-03-15 01:49:00,
2013-03-14 21:54:00,25.2,18.0,30.01,South,180,0.0,0.0,74,0.00,,,0.08,WUHU21636XXSP,2013-03-15 01:54:00,
2013-03-14 21:59:00,25.2,18.0,30.00,SSW,202,2.9,2.9,74,0.00,,,0.08,WUHU21636XXSP,2013-03-15 01:59:00,
2013-03-14 22:04:00,25.5,17.6,30.00,SSW,202,0.0,3.5,72,0.00,,,0.08,WUHU21636XXSP,2013-03-15 02:04:00,
2013-03-14 22:09:00,25.5,17.6,30.00,SSW,202,3.1,3.5,72,0.00,,,0.08,WUHU21636XXSP,2013-03-15 02:09:00,
2013-03-14 22:14:00,25.9,17.4,30.00,South,180,3.5,5.1,70,0.00,,,0.08,WUHU21636XXSP,2013-03-15 02:14:00,
2013-03-14 22:19:00,25.9,17.1,30.00,South,180,4.2,5.1,69,0.00,,,0.08,WUHU21636XXSP,2013-03-15 02:19:00,
2013-03-14 22:24:00,26.4,16.9,29.99,SSW,202,4.0,6.9,59,0.00,,,0.08,WUHU21636XXSP,2013-03-15 02:24:00,
2013-03-14 22:29:00,27.0,16.7,30.00,SSW,202,2.9,6.9,65,0.00,,,0.08,WUHU21636XXSP,2013-03-15 02:29:00,
2013-03-14 22:34:00,27.0,16.3,30.00,SSW,202,6.2,6.7,64,0.00,,,0.08,WUHU21636XXSP,2013-03-15 02:34:00,
2013-03-14 22:39:00,27.1,16.5,30.00,SW,225,1.1,6.4,64,0.00,,,0.08,WUHU21636XXSP,2013-03-15 02:39:00,
2013-03-14 22:44:00,27.0,16.3,30.00,SW,225,1.1,6.2,64,0.00,,,0.08,WUHU21636XXSP,2013-03-15 02:44:00,
2013-03-14 22:49:00,27.0,16.3,30.00,SW,225,1.1,1.1,63,0.00,,,0.08,WUHU21636XXSP,2013-03-15 02:49:00,
2013-03-14 22:54:00,27.0,16.3,30.00,SW,225,1.1,1.1,63,0.00,,,0.08,WUHU21636XXSP,2013-03-15 02:54:00,
2013-03-14 22:59:00,27.0,16.3,30.00,SW,225,1.1,1.1,63,0.00,,,0.08,WUHU21636XXSP,2013-03-15 02:59:00,
2013-03-14 23:00:00,27.0,16.3,30.00,SW,225,1.1,1.1,63,0.00,,,0.08,WUHU21636XXSP,2013-03-15 03:00:00,
2013-03-14 23:04:00,27.0,16.3,30.00,SW,225,1.1,1.1,63,0.00,,,0.08,WUHU21636XXSP,2013-03-15 03:04:00,
2013-03-14 23:09:00,27.0,16.3,30.00,SW,225,1.1,1.1,63,0.00,,,0.08,WUHU21636XXSP,2013-03-15 03:09:00,